North Andover, MA

8:01 PM EST on December 02, 2016 (GMT -0500)
Lawrence Municipal

Weather History for KLWM - December, 2011

Change the Weather History Date:

Sunday, December 18, 2011

  Actual Average Record
Temperature  
Mean Temperature 24 °F -  
Max Temperature 28 °F 38 °F 59 °F (1984)
Min Temperature 17 °F 19 °F -1 °F (1980)
Degree Days  
Heating Degree Days 42    
Moisture  
Dew Point 4 °F    
Average Humidity 46    
Maximum Humidity 58    
Minimum Humidity 31    
Precipitation  
Precipitation 0.00 in - - ()
Sea Level Pressure  
Sea Level Pressure 30.25 in    
Wind  
Wind Speed 7 mph (North)    
Max Wind Speed 13 mph    
Max Gust Speed 18 mph    
Visibility 10 miles    
Events      
Averages and records for this station are not official NWS values.
T = Trace of Precipitation, MM = Missing Value Source: NWS Daily Summary

Daily Weather History Graph

Daily Weather History Graph

Search for Another Location

Airport or City:

Trip Planner

Search our weather history database for the weather conditions in past years. The results will help you decide how hot, cold, wet, or windy it might be!

Date:

Astronomy

Dec. 18, 2011 Rise Set
Actual Time 7:09 AM EST 4:12 PM EST
Civil Twilight 6:37 AM EST 4:44 PM EST
Nautical Twilight 6:01 AM EST 5:20 PM EST
Astronomical Twilight 5:27 AM EST 5:54 PM EST
Moon No Moon Rise 11:42 AM EST (12/18)
Length of Visible Light 10h 07m
Length of Day
9h 02m
Last Quarter, 42% of the Moon is Illuminated
Dec 18
Last Quarter
Dec 24
New
Jan 1
First Quarter
Jan 9
Full
Jan 16
Last Quarter

Hourly Weather History & Observations

Time (EST) Temp. Windchill Dew Point Humidity Pressure Visibility Wind Dir Wind Speed Gust Speed Precip Events Conditions
12:54 AM 23.0 °F 14.7 °F 10.0 °F 58% 30.18 in 10.0 mi NNW 6.9 mph - N/A   Mostly Cloudy
1:54 AM 23.0 °F 13.9 °F 8.1 °F 53% 30.19 in 10.0 mi North 8.1 mph - N/A   Overcast
2:54 AM 21.9 °F 11.0 °F 6.1 °F 51% 30.19 in 10.0 mi North 10.4 mph - N/A   Mostly Cloudy
3:54 AM 21.9 °F 11.0 °F 6.1 °F 51% 30.19 in 10.0 mi NNE 10.4 mph 16.1 mph N/A   Overcast
4:54 AM 21.0 °F 10.6 °F 5.0 °F 50% 30.21 in 10.0 mi North 9.2 mph - N/A   Overcast
5:54 AM 19.9 °F 7.9 °F 3.9 °F 50% 30.23 in 10.0 mi NNE 11.5 mph - N/A   Scattered Clouds
6:54 AM 19.0 °F 9.0 °F 3.9 °F 52% 30.25 in 10.0 mi North 8.1 mph - N/A   Mostly Cloudy
7:54 AM 19.0 °F 6.1 °F 3.9 °F 52% 30.27 in 10.0 mi North 12.7 mph 18.4 mph N/A   Scattered Clouds
8:54 AM 19.9 °F 9.3 °F 3.9 °F 50% 30.27 in 10.0 mi North 9.2 mph - N/A   Scattered Clouds
9:54 AM 23.0 °F 13.1 °F 6.1 °F 48% 30.26 in 10.0 mi NNE 9.2 mph - N/A   Clear
10:54 AM 24.1 °F 14.4 °F 6.1 °F 46% 30.26 in 10.0 mi North 9.2 mph - N/A   Clear
11:54 AM 25.0 °F 15.5 °F 3.9 °F 41% 30.24 in 10.0 mi NNW 9.2 mph - N/A   Clear
12:54 PM 27.0 °F 19.5 °F 3.0 °F 36% 30.23 in 10.0 mi NW 6.9 mph - N/A   Clear
1:54 PM 28.4 °F 24.6 °F 1.4 °F 31% 30.21 in 10.0 mi Variable 3.5 mph - N/A   Clear
2:54 PM 27.0 °F 19.5 °F 1.9 °F 34% 30.23 in 10.0 mi North 6.9 mph - N/A   Clear
3:54 PM 26.1 °F 20.5 °F 1.0 °F 34% 30.24 in 10.0 mi NNW 4.6 mph - N/A   Clear
4:54 PM 24.1 °F 19.7 °F 3.0 °F 40% 30.27 in 10.0 mi North 3.5 mph - N/A   Clear
5:54 PM 24.1 °F 19.7 °F 1.9 °F 38% 30.29 in 10.0 mi NNW 3.5 mph - N/A   Clear
6:54 PM 23.0 °F - 1.0 °F 39% 30.31 in 10.0 mi Calm Calm - N/A   Clear
7:54 PM 21.0 °F - 1.9 °F 44% 30.31 in 10.0 mi Calm Calm - N/A   Clear
8:54 PM 21.0 °F 14.6 °F 1.0 °F 42% 30.31 in 10.0 mi NNW 4.6 mph - N/A   Clear
9:54 PM 19.9 °F - 3.0 °F 48% 30.31 in 10.0 mi Calm Calm - N/A   Clear
10:54 PM 19.0 °F 13.9 °F 3.9 °F 52% 30.31 in 10.0 mi West 3.5 mph - N/A   Clear
11:54 PM 17.1 °F - 3.0 °F 54% 30.29 in 10.0 mi Calm Calm - N/A   Clear